Voltar ao catálogo

RADUGA 28

AtivoMilitarGEO
NORAD 21821·PAYLOAD·🇷🇺 Russia

Lançado Dec 19, 1991 de Baikonur Cosmodrome

Loading…

TLE

AtualizadoSource: Space-Track

Época: Sep 13, 2026, 17:39 UTC

1 21821U 91087A   26256.73557454 -.00000178  00000-0  00000-0 0  9997
2 21821  13.2999 340.4080 0005308 197.2098 159.3553  1.00362793127204

Acompanhe RADUGA 28 em tempo real com AllMySat

Download on the App Store